Location: Bern�tre
(50.1974°N, 2.0915°E)
Time: 05:44:30
(UTC+00:00)

Cosmos 1892 Rocket - Pass Details

Date: 18 September 2020
Orbit: 606 x 633 km, 82.5° (Epoch: 22 October)

Event Time Altitude Azimuth Distance (km) Brightness Sun altitude
Rises 20:14:10 0° 354° (N) 2,879 7.5 -21.6°
Reaches altitude 10° 20:16:29 10° 0° (N) 1,969 6.5 -21.9°
Enters shadow 20:20:06 43° 50° (NE) 857 4.1 -22.4°
